Location: Hermaringen
(48.5952°N, 10.2585°E)
Time: 18:39:32
(UTC+00:00)

Injun/Solrad 3 - Pass Details

Date: 24 February 2026
Orbit: 872 x 984 km, 66.8° (Epoch: 6 March)

Event Time Altitude Azimuth Distance (km) Brightness Sun altitude
Rises 17:34:49 0° 324° (NW) 3,574 11.4 -7.4°
Reaches altitude 10° 17:37:19 10° 324° (NW) 2,645 10.7 -7.8°
Maximum altitude 17:43:30 88° 236° (SW) 958 8.0 -8.8°
Drops below altitude 10° 17:49:50 10° 148° (SSE) 2,703 10.0 -9.9°
Sets 17:52:25 0° 148° (SSE) 3,657 10.7 -10.3°
